Погода Ярково

Погода Ярково : погода сейчас, прогноз погоды и архив. Всё, что Вы хотите узнать о погоде Ярково!

Хотите узнать прогноз погоды Ярково? Тогда Вам сюда: Погода Ярково

Поиск расширенной информации на нашем сайте:

Другие новости

Новости СМИ2

Главная страница сайта

Новости сайта

03.07.2017

Напоминаем, что на нашем специализированном сайте Метеоцентр.Азия вы можете получить высокодетализированные автоматические прогнозы погоды по пунктам России, СНГ и мира в авиационном формате (включающие направление и скорость ветра, видимость, явления погоды, количество и форму облачности, нижнюю и верхнюю границу облачности).

Рекомендуем: relux ватные валочки

Погода Ярково - сегодня

Время (UTC), дата Ветер
(°,м/с) 
Видим.   Явления Облачность Т
(°С)
Тd
(°С)
f(%) Тe
(°С)
Pmin
(гПа)
dP
(гПа)
Po
(мм)
O2
(г/м3)
Тmin Tmax R s Состояние
почвы
21 19.02.18 220 (ЮЗ) 10 км    10/0 средняя 
[As op]
-10.3 -14.7 70 -12  1027.8  -1.1  766  322           
00 20.02.18 220 (ЮЗ) 10 км    4/0 средняя 
[Ac trans]
-11.6 -15.3 74 -14  1027.2  -0.6  765  323           
03 20.02.18 210 (ЮЗ) 10 км    4/0 верхняя 
[Cs]
-11.7 -15.9 71 -14  1026.2  -1  765  323  -11.8      27  равномерный
сухой снег
100% 
06 20.02.18 210 (ЮЗ) 10 км    10/0 средняя 
[As trans]
-9.2 -14.9 63 -11  1025  -1.1  764  320           
09 20.02.18 210 (ЮЗ) 10 км    10/0 средняя 
[As trans]
-5.1 -14 50 -7  1024  -0.9  763  315           
12 20.02.18 170 (Ю) 10 км    10/0 средняя 
[As op]
-4.9 -14 49 -7  1021.9  -2.1  762  314           
18 20.02.18 170 (Ю) 10 км    10/0 верхняя 
[Cs]
-9 -14.3 65 -12  1018.8  -1.7  759  318           
21 20.02.18 150 (ЮВ) 10 км    3/0 верхняя 
[Ci fib]
-9.7 -14.8 66 -11  1017.4  -1.4  758  318           
00 21.02.18 160 (Ю) 10 км    10/0 средняя 
[As op]
-9.5 -14.7 66 -12  1015.5  -1.9  757  317           
03 21.02.18 150 (ЮВ) 10 км    10/0 средняя 
[As op]
-9.5 -13.9 70 -11  1013.4  -2.1  755  316  -9.8      27  равномерный
сухой снег
100% 
06 21.02.18 150 (ЮВ) 10 км    10/0 средняя 
[As op]
-7.8 -13.7 63 -8  1011.5  -1.8  754  314           
09 21.02.18 230 (ЮЗ) 10 км    10/0 средняя 
[Ac As]
-5.1 -13.4 52 -5  1009  -2.4  752  310           
12 21.02.18 240 (ЮЗ) 10 км    8/0 средняя 
[Ac As]
-6.1 -13.3 57 -6  1008  -1  751  311           
18 21.02.18 280 (З) 4000 м  слаб. снег  10/0 средняя 
[As trans]
-9.8 -12 84 -12  1009.3  1.1  752  315           
21 21.02.18 270 (З) 10 км  {снег}  ясно 
-11.1 -13.3 84 -13  1011.1  1.7  753  318           
00 22.02.18 280 (З) 10 км  {снег}  ясно 
-13.3 -15.8 81 -15  1012.7  1.5  755  321           
09 22.02.18 200 (Ю) 10 км  снежные кристаллы  10/3 1000 м средняя 
[Cu hum|As trans]
-8.8 -13.2 70 -10  1013.9  -0.3  756  316           
12 22.02.18 210 (ЮЗ) 10 км  {снег}  10/0 средняя 
[As trans]
-9.1 -12.7 75 -11  1014.1  0.2  756  316           
15 22.02.18 220 (ЮЗ) 4000 м  слаб. снег  10/0 средняя 
[As trans]
-11.2 -13.2 85 -11  1014.6  0.4  756  319    -8.5  0.2     
18 22.02.18 220 (ЮЗ) 4000 м  слаб. снег  10/0 средняя 
[As trans]
-13.5 -15.4 86 -13  1015.5  0.8  757  322           
21 22.02.18 210 (ЮЗ) 10 км  {снег}  9/0 средняя 
[Ac As]
-16.7 -18.7 84 -17  1016.5  757  327           
00 23.02.18 210 (ЮЗ) 4000 м  слаб. снег  10/0 средняя 
[As trans]
-13.5 -15.7 83 -13  1017.1  0.7  758  323           
03 23.02.18 210 (ЮЗ) 10 км  {снег}  10/0 средняя 
[As trans]
-16.3 -18.7 82 -19  1018  0.8  758  327  -18.5    0.4  27  равномерный
сухой снег
100% 
06 23.02.18 190 (Ю) 10 км  {снег}  5/0 верхняя 
[Cs]
-15.1 -18.6 75 -17  1018.6  0.6  759  325           
09 23.02.18 210 (ЮЗ) 10 км    5/3 1000 м кучево-дожд., верхняя 
[Cb cap|Cs]
-11.6 -16.4 68 -15  1018.7  0.2  759  321           
Время (UTC), дата Ветер
(°,м/с) 
Видим.   Явления Облачность Т
(°С)
Тd
(°С)
f(%) Тe
(°С)
Pmin
(гПа)
dP
(гПа)
Po
(мм)
O2
(г/м3)
Тmin Tmax R s Состояние
почвы

Для получения пояснительной информации подведите курсор к названию столбца.

ПОГОДА Ярково - архив

Всё, что Вы хотите узнать о погоде Ярково - удобно и подробно!

Выберите нужную дату (начиная с 1 января 2015* года) и нажмите кнопку "Найти".
Будут отображены архивные сводки погоды по пункту Ярково, начиная с указанной даты.


Отображать данные в формате CSV (для использования в таблицах Excel)


Внимание! Наш архив погоды предназначен исключительно для личного некоммерческого использования в познавательных целях. Если Вам необходимы официальные справки о состоянии погоды (для производственных, юридических, коммерческих и т.п. целей), обращайтесь в органы Росгидромета.

*Примечание: данная дата относится к архиву по метеостанциям СССР (Россия, СНГ, Балтия).
Архив по метеостанциям Зарубежной Европы и Азии (кроме Китая) хранится 10 дней, по другим регионам земного шара (Китай, Африка, Америка, Австралия, Океания) - 1 день.

Ярково - район местоположения метеостанции


Название, широта, долгота, высота метеостанции:
Ярково 57.4°ш. 67.1°д. 50 м над ур. моря [Российская Федерация]

Дополнительная информация

В oтличие oт бoльшинства пoгoдных сайтoв мы публикуем пoдрoбную метеoинфoрмацию в детальнoм прoфессиoнальнoм фoрмате.

Характеристики температуры и влажнoсти вoздуха измеряются на высoте 2 м в тени вдали oт зданий и деревьев.
Скoрoсть ветра измеряется на высoте 10 м (на урoвне рoста челoвека скoрoсть ветра ниже в 1.5-2 раза). Если метеoстанция нахoдится в гoрoде или в лесу, тo скoрoсть ветра занижена на 2-4 м/с пo сравнению с oткрытым местoм. Скoрoсть ветра над акватoриями крупных рек и oзёр, а также на вершинах хoлмoв на 2-5 м/с выше, чем в oбычных услoвиях.
Атмoсфернoе давление в разных тoчках местнoсти мoжет значительнo oтличаться oт давления на метеoстанции, в зависимoсти oт услoвий рельефа (при пoдъёме на 10 м давление пoнижается примернo на 1 мм рт.ст.).